St. Johns, AZ

10:18 AM MST on April 30, 2017 (GMT -0700)
Saint Johns Industrial

Weather History for KSJN - January, 2013

Change the Weather History Date:

Friday, January 11, 2013

  Actual Average (KLSB) Record (KLSB)
Temperature  
Mean Temperature 16 °F -  
Max Temperature 27 °F 57 °F 62 °F (2014)
Min Temperature 6 °F 24 °F 26 °F (2013)
Degree Days  
Heating Degree Days 48    
Moisture  
Dew Point 14 °F    
Average Humidity 62    
Maximum Humidity 93    
Minimum Humidity 13    
Precipitation  
Precipitation 0.01 in - - ()
Sea Level Pressure  
Sea Level Pressure 29.81 in    
Wind  
Wind Speed 18 mph (WSW)    
Max Wind Speed 30 mph    
Max Gust Speed 40 mph    
Visibility 7 miles    
Events Snow    
Averages and records for this station are not official NWS values.
T = Trace of Precipitation, MM = Missing Value Source: NWS Daily Summary

Daily Weather History Graph

Daily Weather History Graph

Search for Another Location

Airport or City:

Trip Planner

Search our weather history database for the weather conditions in past years. The results will help you decide how hot, cold, wet, or windy it might be!

Date:

Astronomy

Jan. 11, 2013 Rise Set
Actual Time 7:24 AM MST 5:26 PM MST
Civil Twilight 6:57 AM MST 5:54 PM MST
Nautical Twilight 6:26 AM MST 6:25 PM MST
Astronomical Twilight 5:55 AM MST 6:55 PM MST
Moon 7:02 AM MST (1/11) 5:46 PM MST (1/11)
Length of Visible Light 10h 57m
Length of Day
10h 02m
Waning Crescent, 0% of the Moon is Illuminated
Jan 11
Waning Crescent
Jan 11
New
Jan 18
First Quarter
Jan 26
Full
Feb 3
Last Quarter

Hourly Weather History & Observations

Time (MST) Temp. Windchill Dew Point Humidity Pressure Visibility Wind Dir Wind Speed Gust Speed Precip Events Conditions
12:54 AM 37.9 °F 27.3 °F 21.0 °F 51% 29.61 in 10.0 mi SSW 21.9 mph 29.9 mph N/A   Clear
1:54 AM 39.0 °F 28.8 °F 25.0 °F 57% 29.53 in 10.0 mi SW 21.9 mph 33.4 mph N/A   Overcast
2:21 AM 33.8 °F 22.8 °F 30.2 °F 87% 29.69 in 2.5 mi SW 18.4 mph 25.3 mph 0.00 in Snow Light Snow
2:27 AM 33.8 °F 20.1 °F 30.2 °F 87% 29.69 in 0.8 mi WSW 29.9 mph 36.8 mph 0.01 in Snow Light Snow
2:37 AM 32.0 °F 19.2 °F 30.2 °F 93% 29.71 in 0.8 mi West 23.0 mph 31.1 mph 0.01 in Snow Light Snow
2:54 AM 30.0 °F 16.6 °F 27.0 °F 88% 29.63 in 1.5 mi WSW 23.0 mph 31.1 mph 0.02 in Snow Light Snow
3:01 AM 30.2 °F 17.1 °F 26.6 °F 86% 29.72 in 1.5 mi WSW 21.9 mph 32.2 mph 0.00 in Snow Light Snow
3:33 AM 28.4 °F 15.1 °F 24.8 °F 86% 29.74 in 2.5 mi WSW 20.7 mph 36.8 mph 0.00 in Snow Light Snow
3:43 AM 28.4 °F 14.4 °F 24.8 °F 86% 29.75 in 3.0 mi WSW 23.0 mph 32.2 mph 0.00 in Snow Light Snow
3:52 AM 28.4 °F 13.8 °F 23.0 °F 80% 29.74 in 1.8 mi SW 25.3 mph 40.3 mph 0.00 in Snow Light Snow
3:54 AM 27.0 °F 12.8 °F 23.0 °F 85% 29.68 in 1.5 mi SW 21.9 mph 40.3 mph 0.00 in Snow Light Snow
4:54 AM 26.1 °F 11.0 °F 21.0 °F 81% 29.72 in 2.5 mi SW 24.2 mph 28.8 mph 0.00 in Snow Light Snow
5:06 AM 24.8 °F 10.3 °F 21.2 °F 86% 29.78 in 1.0 mi SW 20.7 mph 29.9 mph 0.00 in Snow Light Snow
5:20 AM 26.6 °F 14.7 °F 21.2 °F 80% 29.79 in 3.0 mi SW 15.0 mph 25.3 mph 0.00 in Snow Light Snow
5:37 AM 24.8 °F 10.7 °F 19.4 °F 80% 29.80 in 6.0 mi SW 19.6 mph 26.5 mph 0.00 in Snow Light Snow
5:54 AM 25.0 °F 12.2 °F 16.0 °F 69% 29.78 in 10.0 mi WSW 16.1 mph 25.3 mph 0.00 in   Overcast
6:54 AM 21.9 °F 9.2 °F 12.0 °F 66% 29.81 in 10.0 mi WSW 13.8 mph - N/A   Clear
7:54 AM 19.0 °F 8.2 °F 10.0 °F 68% 29.85 in 10.0 mi WSW 9.2 mph - N/A   Clear
8:54 AM 23.0 °F 9.6 °F 12.9 °F 65% 29.88 in 10.0 mi SSW 16.1 mph - N/A   Clear
9:54 AM 25.0 °F 12.2 °F 12.9 °F 60% 29.88 in 10.0 mi SSW 16.1 mph 25.3 mph N/A   Clear
10:54 AM 28.0 °F 14.9 °F 10.0 °F 47% 29.90 in 10.0 mi WSW 19.6 mph 23.0 mph N/A   Clear
11:54 AM 28.0 °F 14.9 °F 9.0 °F 45% 29.87 in 10.0 mi WSW 19.6 mph 26.5 mph N/A   Partly Cloudy
12:54 PM 27.0 °F 14.3 °F 5.0 °F 39% 29.85 in 10.0 mi West 17.3 mph - N/A   Clear
1:54 PM 30.0 °F 19.1 °F 6.1 °F 36% 29.83 in 10.0 mi West 15.0 mph - N/A   Partly Cloudy
2:54 PM 30.0 °F 20.0 °F 5.0 °F 35% 29.86 in 10.0 mi WSW 12.7 mph - N/A   Clear
3:54 PM 30.0 °F 25.2 °F 1.9 °F 30% 29.87 in 10.0 mi NW 4.6 mph - N/A   Overcast
4:54 PM 30.0 °F 26.5 °F 1.0 °F 29% 29.88 in 10.0 mi NNW 3.5 mph - N/A   Overcast
5:54 PM 27.0 °F - 9.0 °F 47% 29.90 in 10.0 mi Calm Calm - N/A   Overcast
6:54 PM 25.0 °F 20.7 °F 9.0 °F 51% 29.92 in 10.0 mi SW 3.5 mph - N/A   Overcast
7:54 PM 21.9 °F 17.2 °F 10.0 °F 60% 29.95 in 10.0 mi West 3.5 mph - N/A   Overcast
8:54 PM 23.0 °F 14.7 °F 9.0 °F 55% 29.94 in 10.0 mi WSW 6.9 mph - N/A   Overcast
9:54 PM 21.0 °F 10.6 °F 6.1 °F 53% 29.93 in 10.0 mi SW 9.2 mph - N/A   Mostly Cloudy
10:54 PM 17.1 °F 7.6 °F 6.1 °F 62% 29.94 in 10.0 mi WSW 6.9 mph - N/A   Clear
11:54 PM 14.0 °F 8.2 °F 5.0 °F 67% 29.95 in 10.0 mi West 3.5 mph - N/A   Clear